Lawrence, MA

2:00 AM EDT on September 01, 2016 (GMT -0400)
Lawrence Municipal

Weather History for KLWM - March, 2013

Change the Weather History Date:

Saturday, March 2, 2013

  Actual Average Record
Temperature  
Mean Temperature 38 °F -  
Max Temperature 43 °F 41 °F 66 °F (1991)
Min Temperature 32 °F 22 °F 3 °F (1940)
Degree Days  
Heating Degree Days 28    
Moisture  
Dew Point 25 °F    
Average Humidity 62    
Maximum Humidity 73    
Minimum Humidity 51    
Precipitation  
Precipitation 0.00 in - - ()
Sea Level Pressure  
Sea Level Pressure 29.67 in    
Wind  
Wind Speed 5 mph (NW)    
Max Wind Speed 8 mph    
Max Gust Speed -    
Visibility 10 miles    
Events      
Averages and records for this station are not official NWS values.
T = Trace of Precipitation, MM = Missing Value Source: NWS Daily Summary

Daily Weather History Graph

Daily Weather History Graph

Search for Another Location

Airport or City:

Trip Planner

Search our weather history database for the weather conditions in past years. The results will help you decide how hot, cold, wet, or windy it might be!

Date:

Astronomy

Mar. 02, 2013 Rise Set
Actual Time 6:18 AM EST 5:35 PM EST
Civil Twilight 5:49 AM EST 6:03 PM EST
Nautical Twilight 5:17 AM EST 6:36 PM EST
Astronomical Twilight 4:44 AM EST 7:09 PM EST
Moon 11:20 PM EST (3/2) 8:36 AM EST (3/2)
Length of Visible Light 12h 13m
Length of Day
11h 17m
Waning Gibbous, 74% of the Moon is Illuminated
Mar 2
Waning Gibbous
Mar 4
Last Quarter
Mar 11
New
Mar 19
First Quarter
Mar 27
Full

Hourly Weather History & Observations

Time (EST) Temp. Windchill Dew Point Humidity Pressure Visibility Wind Dir Wind Speed Gust Speed Precip Events Conditions
12:54 AM 36.0 °F 32.1 °F 26.1 °F 67% 29.69 in 10.0 mi NW 4.6 mph - N/A   Overcast
1:54 AM 35.6 °F 30.7 °F 26.6 °F 70% 29.67 in 10.0 mi WNW 5.8 mph - N/A   Overcast
2:54 AM 35.1 °F 31.0 °F 25.0 °F 67% 29.67 in 10.0 mi NW 4.6 mph - N/A   Overcast
3:36 AM 35.6 °F 31.7 °F 24.8 °F 65% 29.66 in 10.0 mi NW 4.6 mph - N/A   Scattered Clouds
3:54 AM 34.0 °F 31.0 °F 25.0 °F 70% 29.68 in 10.0 mi West 3.5 mph - N/A   Mostly Cloudy
4:54 AM 33.1 °F 30.0 °F 24.1 °F 70% 29.68 in 10.0 mi West 3.5 mph - N/A   Clear
5:54 AM 32.0 °F 27.5 °F 24.1 °F 73% 29.68 in 10.0 mi WSW 4.6 mph - N/A   Clear
6:54 AM 32.0 °F 28.7 °F 24.1 °F 73% 29.68 in 10.0 mi West 3.5 mph - N/A   Clear
7:54 AM 35.1 °F 29.3 °F 25.0 °F 67% 29.68 in 10.0 mi WNW 6.9 mph - N/A   Clear
8:54 AM 37.0 °F 31.0 °F 25.0 °F 62% 29.69 in 10.0 mi NNW 8.1 mph - N/A   Clear
9:54 AM 39.0 °F 36.8 °F 25.0 °F 57% 29.69 in 10.0 mi North 3.5 mph - N/A   Overcast
10:54 AM 39.0 °F - 26.1 °F 60% 29.68 in 10.0 mi Calm Calm - N/A   Overcast
11:54 AM 41.0 °F 39.0 °F 27.0 °F 57% 29.66 in 10.0 mi NNE 3.5 mph - N/A   Overcast
12:54 PM 41.0 °F 35.8 °F 27.0 °F 57% 29.64 in 10.0 mi NW 8.1 mph - N/A   Overcast
1:54 PM 43.0 °F 40.3 °F 28.0 °F 56% 29.64 in 10.0 mi North 4.6 mph - N/A   Overcast
2:54 PM 43.0 °F 39.5 °F 27.0 °F 53% 29.63 in 10.0 mi Variable 5.8 mph - N/A   Overcast
3:54 PM 43.0 °F 38.8 °F 26.1 °F 51% 29.63 in 10.0 mi NW 6.9 mph - N/A   Overcast
4:54 PM 41.0 °F 38.0 °F 26.1 °F 55% 29.64 in 10.0 mi WNW 4.6 mph - N/A   Overcast
5:54 PM 41.0 °F 39.0 °F 25.0 °F 53% 29.65 in 10.0 mi WNW 3.5 mph - N/A   Overcast
6:54 PM 39.0 °F 34.0 °F 25.0 °F 57% 29.67 in 10.0 mi NW 6.9 mph - N/A   Overcast
7:54 PM 39.0 °F 34.0 °F 24.1 °F 55% 29.67 in 10.0 mi NNW 6.9 mph - N/A   Overcast
8:54 PM 37.0 °F 32.4 °F 24.1 °F 59% 29.68 in 10.0 mi NW 5.8 mph - N/A   Overcast
9:54 PM 37.0 °F 31.0 °F 24.1 °F 59% 29.68 in 10.0 mi NW 8.1 mph - N/A   Overcast
10:26 PM 35.6 °F 31.7 °F 24.8 °F 65% 29.66 in 10.0 mi NNW 4.6 mph - N/A   Overcast
10:54 PM 36.0 °F 32.1 °F 24.1 °F 62% 29.66 in 10.0 mi NNW 4.6 mph - N/A   Overcast
11:54 PM 35.1 °F 28.6 °F 24.1 °F 64% 29.66 in 10.0 mi NNW 8.1 mph - N/A   Overcast